Year,Month,Day,Hour,Minute,Value (Times are PST for insolation in W/m^2)
2014,09,01,00,00,0.00
2014,09,01,00,01,0.00
2014,09,01,00,02,0.00
2014,09,01,00,03,0.00
2014,09,01,00,04,0.00
2014,09,01,00,05,0.00
2014,09,01,00,06,0.00
2014,09,01,00,07,0.00
2014,09,01,00,08,0.00
2014,09,01,00,09,0.00
2014,09,01,00,10,0.00
2014,09,01,00,11,0.00
2014,09,01,00,12,0.00
2014,09,01,00,13,0.00
2014,09,01,00,14,0.00
2014,09,01,00,15,0.00
2014,09,01,00,16,0.00
2014,09,01,00,17,0.00
2014,09,01,00,18,0.00
2014,09,01,00,19,0.00
2014,09,01,00,20,0.00
2014,09,01,00,21,0.00
2014,09,01,00,22,0.00
2014,09,01,00,23,0.00
2014,09,01,00,24,0.00
2014,09,01,00,25,0.00
2014,09,01,00,26,0.00
2014,09,01,00,27,0.00
2014,09,01,00,28,0.00
2014,09,01,00,29,0.00
2014,09,01,00,30,0.00
2014,09,01,00,31,0.00
2014,09,01,00,32,0.00
2014,09,01,00,33,0.00
2014,09,01,00,34,0.00
2014,09,01,00,35,0.00
2014,09,01,00,36,0.00
2014,09,01,00,37,0.00
2014,09,01,00,38,0.00
2014,09,01,00,39,0.00
2014,09,01,00,40,0.00
2014,09,01,00,41,0.00
2014,09,01,00,42,0.00
2014,09,01,00,43,0.00
2014,09,01,00,44,0.00
2014,09,01,00,45,0.00
2014,09,01,00,46,0.00
2014,09,01,00,47,0.00
2014,09,01,00,48,0.00
2014,09,01,00,49,0.00
2014,09,01,00,50,0.00
2014,09,01,00,51,0.00
2014,09,01,00,52,0.00
2014,09,01,00,53,0.00
2014,09,01,00,54,0.00
2014,09,01,00,55,0.00
2014,09,01,00,56,0.00
2014,09,01,00,57,0.00
2014,09,01,00,58,0.00
2014,09,01,00,59,0.00
2014,09,01,01,00,0.00
2014,09,01,01,01,0.00
2014,09,01,01,02,0.00
2014,09,01,01,03,0.00
2014,09,01,01,04,0.00
2014,09,01,01,05,0.00
2014,09,01,01,06,0.00
2014,09,01,01,07,0.00
2014,09,01,01,08,0.00
2014,09,01,01,09,0.00
2014,09,01,01,10,0.00
2014,09,01,01,11,0.00
2014,09,01,01,12,0.00
2014,09,01,01,13,0.00
2014,09,01,01,14,0.00
2014,09,01,01,15,0.00
2014,09,01,01,16,0.00
2014,09,01,01,17,0.00
2014,09,01,01,18,0.00
2014,09,01,01,19,0.00
2014,09,01,01,20,0.00
2014,09,01,01,21,0.00
2014,09,01,01,22,0.00
2014,09,01,01,23,0.00
2014,09,01,01,24,0.00
2014,09,01,01,25,0.00
2014,09,01,01,26,0.00
2014,09,01,01,27,0.00
2014,09,01,01,28,0.00
2014,09,01,01,29,0.00
2014,09,01,01,30,0.00
2014,09,01,01,31,0.00
2014,09,01,01,32,0.00
2014,09,01,01,33,0.00
2014,09,01,01,34,0.00
2014,09,01,01,35,0.00
2014,09,01,01,36,0.00
2014,09,01,01,37,0.00
2014,09,01,01,38,0.00
2014,09,01,01,39,0.00
2014,09,01,01,40,0.00
2014,09,01,01,41,0.00
2014,09,01,01,42,0.00
2014,09,01,01,43,0.00
2014,09,01,01,44,0.00
2014,09,01,01,45,0.00
2014,09,01,01,46,0.00
2014,09,01,01,47,0.00
2014,09,01,01,48,0.00
2014,09,01,01,49,0.00
2014,09,01,01,50,0.00
2014,09,01,01,51,0.00
2014,09,01,01,52,0.00
2014,09,01,01,53,0.00
2014,09,01,01,54,0.00
2014,09,01,01,55,0.00
2014,09,01,01,56,0.00
2014,09,01,01,57,0.00
2014,09,01,01,58,0.00
2014,09,01,01,59,0.00
2014,09,01,02,00,0.00
2014,09,01,02,01,0.00
2014,09,01,02,02,0.00
2014,09,01,02,03,0.00
2014,09,01,02,04,0.00
2014,09,01,02,05,0.00
2014,09,01,02,06,0.00
2014,09,01,02,07,0.00
2014,09,01,02,08,0.00
2014,09,01,02,09,0.00
2014,09,01,02,10,0.00
2014,09,01,02,11,0.00
2014,09,01,02,12,0.00
2014,09,01,02,13,0.00
2014,09,01,02,14,0.00
2014,09,01,02,15,0.00
2014,09,01,02,16,0.00
2014,09,01,02,17,0.00
2014,09,01,02,18,0.00
2014,09,01,02,19,0.00
2014,09,01,02,20,0.00
2014,09,01,02,21,0.00
2014,09,01,02,22,0.00
2014,09,01,02,23,0.00
2014,09,01,02,24,0.00
2014,09,01,02,25,0.00
2014,09,01,02,26,0.00
2014,09,01,02,27,0.00
2014,09,01,02,28,0.00
2014,09,01,02,29,0.00
2014,09,01,02,30,0.00
2014,09,01,02,31,0.00
2014,09,01,02,32,0.00
2014,09,01,02,33,0.00
2014,09,01,02,34,0.00
2014,09,01,02,35,0.00
2014,09,01,02,36,0.00
2014,09,01,02,37,0.00
2014,09,01,02,38,0.00
2014,09,01,02,39,0.00
2014,09,01,02,40,0.00
2014,09,01,02,41,0.00
2014,09,01,02,42,0.00
2014,09,01,02,43,0.00
2014,09,01,02,44,0.00
2014,09,01,02,45,0.00
2014,09,01,02,46,0.00
2014,09,01,02,47,0.00
2014,09,01,02,48,0.00
2014,09,01,02,49,0.00
2014,09,01,02,50,0.00
2014,09,01,02,51,0.00
2014,09,01,02,52,0.00
2014,09,01,02,53,0.00
2014,09,01,02,54,0.00
2014,09,01,02,55,0.00
2014,09,01,02,56,0.00
2014,09,01,02,57,0.00
2014,09,01,02,58,0.00
2014,09,01,02,59,0.00
2014,09,01,03,00,0.00
2014,09,01,03,01,0.00
2014,09,01,03,02,0.00
2014,09,01,03,03,0.00
2014,09,01,03,04,0.00
2014,09,01,03,05,0.00
2014,09,01,03,06,0.00
2014,09,01,03,07,0.00
2014,09,01,03,08,0.00
2014,09,01,03,09,0.00
2014,09,01,03,10,0.00
2014,09,01,03,11,0.00
2014,09,01,03,12,0.00
2014,09,01,03,13,0.00
2014,09,01,03,14,0.00
2014,09,01,03,15,0.00
2014,09,01,03,16,0.00
2014,09,01,03,17,0.00
2014,09,01,03,18,0.00
2014,09,01,03,19,0.00
2014,09,01,03,20,0.00
2014,09,01,03,21,0.00
2014,09,01,03,22,0.00
2014,09,01,03,23,0.00
2014,09,01,03,24,0.00
2014,09,01,03,25,0.00
2014,09,01,03,26,0.00
2014,09,01,03,27,0.00
2014,09,01,03,28,0.00
2014,09,01,03,29,0.00
2014,09,01,03,30,0.00
2014,09,01,03,31,0.00
2014,09,01,03,32,0.00
2014,09,01,03,33,0.00
2014,09,01,03,34,0.00
2014,09,01,03,35,0.00
2014,09,01,03,36,0.00
2014,09,01,03,37,0.00
2014,09,01,03,38,0.00
2014,09,01,03,39,0.00
2014,09,01,03,40,0.00
2014,09,01,03,41,0.00
2014,09,01,03,42,0.00
2014,09,01,03,43,0.00
2014,09,01,03,44,0.00
2014,09,01,03,45,0.00
2014,09,01,03,46,0.00
2014,09,01,03,47,0.00
2014,09,01,03,48,0.00
2014,09,01,03,49,0.00
2014,09,01,03,50,0.00
2014,09,01,03,51,0.00
2014,09,01,03,52,0.00
2014,09,01,03,53,0.00
2014,09,01,03,54,0.00
2014,09,01,03,55,0.00
2014,09,01,03,56,0.00
2014,09,01,03,57,0.00
2014,09,01,03,58,0.00
2014,09,01,03,59,0.00
2014,09,01,04,00,0.00
2014,09,01,04,01,0.00
2014,09,01,04,02,0.00
2014,09,01,04,03,0.00
2014,09,01,04,04,0.00
2014,09,01,04,05,0.00
2014,09,01,04,06,0.00
2014,09,01,04,07,0.00
2014,09,01,04,08,0.00
2014,09,01,04,09,0.00
2014,09,01,04,10,0.00
2014,09,01,04,11,0.00
2014,09,01,04,12,0.00
2014,09,01,04,13,0.00
2014,09,01,04,14,0.00
2014,09,01,04,15,0.00
2014,09,01,04,16,0.00
2014,09,01,04,17,0.00
2014,09,01,04,18,0.00
2014,09,01,04,19,0.00
2014,09,01,04,20,0.00
2014,09,01,04,21,0.00
2014,09,01,04,22,0.00
2014,09,01,04,23,0.00
2014,09,01,04,24,0.00
2014,09,01,04,25,0.00
2014,09,01,04,26,0.00
2014,09,01,04,27,0.00
2014,09,01,04,28,0.00
2014,09,01,04,29,0.00
2014,09,01,04,30,0.00
2014,09,01,04,31,0.00
2014,09,01,04,32,0.00
2014,09,01,04,33,0.00
2014,09,01,04,34,0.00
2014,09,01,04,35,0.00
2014,09,01,04,36,0.00
2014,09,01,04,37,0.00
2014,09,01,04,38,0.00
2014,09,01,04,39,0.00
2014,09,01,04,40,0.00
2014,09,01,04,41,0.00
2014,09,01,04,42,0.00
2014,09,01,04,43,0.00
2014,09,01,04,44,0.00
2014,09,01,04,45,0.00
2014,09,01,04,46,0.00
2014,09,01,04,47,0.00
2014,09,01,04,48,0.00
2014,09,01,04,49,0.00
2014,09,01,04,50,0.00
2014,09,01,04,51,0.00
2014,09,01,04,52,0.00
2014,09,01,04,53,0.00
2014,09,01,04,54,0.00
2014,09,01,04,55,0.00
2014,09,01,04,56,0.00
2014,09,01,04,57,0.00
2014,09,01,04,58,0.00
2014,09,01,04,59,0.00
2014,09,01,05,00,0.00
2014,09,01,05,01,0.00
2014,09,01,05,02,0.00
2014,09,01,05,03,0.00
2014,09,01,05,04,0.00
2014,09,01,05,05,0.00
2014,09,01,05,06,0.00
2014,09,01,05,07,0.00
2014,09,01,05,08,0.00
2014,09,01,05,09,0.00
2014,09,01,05,10,0.00
2014,09,01,05,11,0.00
2014,09,01,05,12,0.00
2014,09,01,05,13,0.00
2014,09,01,05,14,0.00
2014,09,01,05,15,0.00
2014,09,01,05,16,0.00
2014,09,01,05,17,0.00
2014,09,01,05,18,0.00
2014,09,01,05,19,0.00
2014,09,01,05,20,0.00
2014,09,01,05,21,0.00
2014,09,01,05,22,0.00
2014,09,01,05,23,0.00
2014,09,01,05,24,0.00
2014,09,01,05,25,0.00
2014,09,01,05,26,0.00
2014,09,01,05,27,0.00
2014,09,01,05,28,0.00
2014,09,01,05,29,0.00
2014,09,01,05,30,0.00
2014,09,01,05,31,0.00
2014,09,01,05,32,0.00
2014,09,01,05,33,0.00
2014,09,01,05,34,0.00
2014,09,01,05,35,0.00
2014,09,01,05,36,0.00
2014,09,01,05,37,0.00
2014,09,01,05,38,0.00
2014,09,01,05,39,0.00
2014,09,01,05,40,0.00
2014,09,01,05,41,0.00
2014,09,01,05,42,0.00
2014,09,01,05,43,0.00
2014,09,01,05,44,0.00
2014,09,01,05,45,0.00
2014,09,01,05,46,0.00
2014,09,01,05,47,0.00
2014,09,01,05,48,0.00
2014,09,01,05,49,0.00
2014,09,01,05,50,0.00
2014,09,01,05,51,0.00
2014,09,01,05,52,0.00
2014,09,01,05,53,0.00
2014,09,01,05,54,0.00
2014,09,01,05,55,0.00
2014,09,01,05,56,0.00
2014,09,01,05,57,0.00
2014,09,01,05,58,0.00
2014,09,01,05,59,0.00
2014,09,01,06,00,0.00
2014,09,01,06,01,0.00
2014,09,01,06,02,0.00
2014,09,01,06,03,0.00
2014,09,01,06,04,0.00
2014,09,01,06,05,0.00
2014,09,01,06,06,0.00
2014,09,01,06,07,0.00
2014,09,01,06,08,0.00
2014,09,01,06,09,0.00
2014,09,01,06,10,0.00
2014,09,01,06,11,0.00
2014,09,01,06,12,0.00
2014,09,01,06,13,0.00
2014,09,01,06,14,0.00
2014,09,01,06,15,0.00
2014,09,01,06,16,0.00
2014,09,01,06,17,0.00
2014,09,01,06,18,0.00
2014,09,01,06,19,0.00
2014,09,01,06,20,0.00
2014,09,01,06,21,0.00
2014,09,01,06,22,0.00
2014,09,01,06,23,0.00
2014,09,01,06,24,0.00
2014,09,01,06,25,0.00
2014,09,01,06,26,0.00
2014,09,01,06,27,0.00
2014,09,01,06,28,0.00
2014,09,01,06,29,0.00
2014,09,01,06,30,0.00
2014,09,01,06,31,0.00
2014,09,01,06,32,0.00
2014,09,01,06,33,0.00
2014,09,01,06,34,0.00
2014,09,01,06,35,0.00
2014,09,01,06,36,0.00
2014,09,01,06,37,0.00
2014,09,01,06,38,0.00
2014,09,01,06,39,0.00
2014,09,01,06,40,0.00
2014,09,01,06,41,0.00
2014,09,01,06,42,0.00
2014,09,01,06,43,0.00
2014,09,01,06,44,0.00
2014,09,01,06,45,1.90
2014,09,01,06,46,5.00
2014,09,01,06,47,5.00
2014,09,01,06,48,5.00
2014,09,01,06,49,5.00
2014,09,01,06,50,7.00
2014,09,01,06,51,7.00
2014,09,01,06,52,7.00
2014,09,01,06,53,8.00
2014,09,01,06,54,9.00
2014,09,01,06,55,10.50
2014,09,01,06,56,11.90
2014,09,01,06,57,14.20
2014,09,01,06,58,16.00
2014,09,01,06,59,16.70
2014,09,01,07,00,17.00
2014,09,01,07,01,16.00
2014,09,01,07,02,14.50
2014,09,01,07,03,14.00
2014,09,01,07,04,12.00
2014,09,01,07,05,11.80
2014,09,01,07,06,11.00
2014,09,01,07,07,11.00
2014,09,01,07,08,11.00
2014,09,01,07,09,11.00
2014,09,01,07,10,11.90
2014,09,01,07,11,14.20
2014,09,01,07,12,16.40
2014,09,01,07,13,18.40
2014,09,01,07,14,20.00
2014,09,01,07,15,23.40
2014,09,01,07,16,25.70
2014,09,01,07,17,31.10
2014,09,01,07,18,35.40
2014,09,01,07,19,39.70
2014,09,01,07,20,42.00
2014,09,01,07,21,42.00
2014,09,01,07,22,40.20
2014,09,01,07,23,37.50
2014,09,01,07,24,33.60
2014,09,01,07,25,36.80
2014,09,01,07,26,34.50
2014,09,01,07,27,33.00
2014,09,01,07,28,33.00
2014,09,01,07,29,36.80
2014,09,01,07,30,37.50
2014,09,01,07,31,37.00
2014,09,01,07,32,42.60
2014,09,01,07,33,48.60
2014,09,01,07,34,55.60
2014,09,01,07,35,63.40
2014,09,01,07,36,71.40
2014,09,01,07,37,76.20
2014,09,01,07,38,80.40
2014,09,01,07,39,80.00
2014,09,01,07,40,71.50
2014,09,01,07,41,69.60
2014,09,01,07,42,64.70
2014,09,01,07,43,55.60
2014,09,01,07,44,48.60
2014,09,01,07,45,44.30
2014,09,01,07,46,38.60
2014,09,01,07,47,34.50
2014,09,01,07,48,33.00
2014,09,01,07,49,33.00
2014,09,01,07,50,34.30
2014,09,01,07,51,38.00
2014,09,01,07,52,43.40
2014,09,01,07,53,49.60
2014,09,01,07,54,53.30
2014,09,01,07,55,52.90
2014,09,01,07,56,48.40
2014,09,01,07,57,42.20
2014,09,01,07,58,36.30
2014,09,01,07,59,32.30
2014,09,01,08,00,30.00
2014,09,01,08,01,30.50
2014,09,01,08,02,32.40
2014,09,01,08,03,35.10
2014,09,01,08,04,40.10
2014,09,01,08,05,45.00
2014,09,01,08,06,50.40
2014,09,01,08,07,52.90
2014,09,01,08,08,53.00
2014,09,01,08,09,53.00
2014,09,01,08,10,53.50
2014,09,01,08,11,55.30
2014,09,01,08,12,57.50
2014,09,01,08,13,59.70
2014,09,01,08,14,60.00
2014,09,01,08,15,60.00
2014,09,01,08,16,60.00
2014,09,01,08,17,59.00
2014,09,01,08,18,58.00
2014,09,01,08,19,56.50
2014,09,01,08,20,56.00
2014,09,01,08,21,53.90
2014,09,01,08,22,53.00
2014,09,01,08,23,52.30
2014,09,01,08,24,50.00
2014,09,01,08,25,49.00
2014,09,01,08,26,49.00
2014,09,01,08,27,49.00
2014,09,01,08,28,49.20
2014,09,01,08,29,51.00
2014,09,01,08,30,51.00
2014,09,01,08,31,50.00
2014,09,01,08,32,47.70
2014,09,01,08,33,46.30
2014,09,01,08,34,44.30
2014,09,01,08,35,42.10
2014,09,01,08,36,42.00
2014,09,01,08,37,42.70
2014,09,01,08,38,45.40
2014,09,01,08,39,51.40
2014,09,01,08,40,63.60
2014,09,01,08,41,78.90
2014,09,01,08,42,94.20
2014,09,01,08,43,104.20
2014,09,01,08,44,103.10
2014,09,01,08,45,95.20
2014,09,01,08,46,83.10
2014,09,01,08,47,75.30
2014,09,01,08,48,72.20
2014,09,01,08,49,74.80
2014,09,01,08,50,83.20
2014,09,01,08,51,95.60
2014,09,01,08,52,109.00
2014,09,01,08,53,117.60
2014,09,01,08,54,120.00
2014,09,01,08,55,114.90
2014,09,01,08,56,106.00
2014,09,01,08,57,96.40
2014,09,01,08,58,88.70
2014,09,01,08,59,82.50
2014,09,01,09,00,82.30
2014,09,01,09,01,83.70
2014,09,01,09,02,87.60
2014,09,01,09,03,91.00
2014,09,01,09,04,90.70
2014,09,01,09,05,88.50
2014,09,01,09,06,84.40
2014,09,01,09,07,81.70
2014,09,01,09,08,82.50
2014,09,01,09,09,85.70
2014,09,01,09,10,91.70
2014,09,01,09,11,97.80
2014,09,01,09,12,100.00
2014,09,01,09,13,99.00
2014,09,01,09,14,96.10
2014,09,01,09,15,93.50
2014,09,01,09,16,94.70
2014,09,01,09,17,97.60
2014,09,01,09,18,102.70
2014,09,01,09,19,106.50
2014,09,01,09,20,110.00
2014,09,01,09,21,112.90
2014,09,01,09,22,117.00
2014,09,01,09,23,119.80
2014,09,01,09,24,120.90
2014,09,01,09,25,119.50
2014,09,01,09,26,118.00
2014,09,01,09,27,118.00
2014,09,01,09,28,118.00
2014,09,01,09,29,123.20
2014,09,01,09,30,133.90
2014,09,01,09,31,147.30
2014,09,01,09,32,160.90
2014,09,01,09,33,169.70
2014,09,01,09,34,169.10
2014,09,01,09,35,165.70
2014,09,01,09,36,166.50
2014,09,01,09,37,171.40
2014,09,01,09,38,182.00
2014,09,01,09,39,193.10
2014,09,01,09,40,206.40
2014,09,01,09,41,221.20
2014,09,01,09,42,230.90
2014,09,01,09,43,235.70
2014,09,01,09,44,242.30
2014,09,01,09,45,216.70
2014,09,01,09,46,206.00
2014,09,01,09,47,203.40
2014,09,01,09,48,201.40
2014,09,01,09,49,214.50
2014,09,01,09,50,221.00
2014,09,01,09,51,334.10
2014,09,01,09,52,358.90
2014,09,01,09,53,297.90
2014,09,01,09,54,310.60
2014,09,01,09,55,309.20
2014,09,01,09,56,282.40
2014,09,01,09,57,289.90
2014,09,01,09,58,310.20
2014,09,01,09,59,329.10
2014,09,01,10,00,322.00
2014,09,01,10,01,287.30
2014,09,01,10,02,260.60
2014,09,01,10,03,246.50
2014,09,01,10,04,258.40
2014,09,01,10,05,293.10
2014,09,01,10,06,282.70
2014,09,01,10,07,277.80
2014,09,01,10,08,262.30
2014,09,01,10,09,247.00
2014,09,01,10,10,234.10
2014,09,01,10,11,222.60
2014,09,01,10,12,212.00
2014,09,01,10,13,201.40
2014,09,01,10,14,196.00
2014,09,01,10,15,193.00
2014,09,01,10,16,193.00
2014,09,01,10,17,194.20
2014,09,01,10,18,198.70
2014,09,01,10,19,203.40
2014,09,01,10,20,207.20
2014,09,01,10,21,209.00
2014,09,01,10,22,209.00
2014,09,01,10,23,209.00
2014,09,01,10,24,211.50
2014,09,01,10,25,215.20
2014,09,01,10,26,225.80
2014,09,01,10,27,241.40
2014,09,01,10,28,259.40
2014,09,01,10,29,280.70
2014,09,01,10,30,303.10
2014,09,01,10,31,321.30
2014,09,01,10,32,329.20
2014,09,01,10,33,323.20
2014,09,01,10,34,310.20
2014,09,01,10,35,302.90
2014,09,01,10,36,299.70
2014,09,01,10,37,304.40
2014,09,01,10,38,331.90
2014,09,01,10,39,346.00
2014,09,01,10,40,329.80
2014,09,01,10,41,312.40
2014,09,01,10,42,306.70
2014,09,01,10,43,300.90
2014,09,01,10,44,298.00
2014,09,01,10,45,298.20
2014,09,01,10,46,301.20
2014,09,01,10,47,305.40
2014,09,01,10,48,311.30
2014,09,01,10,49,316.10
2014,09,01,10,50,320.70
2014,09,01,10,51,322.50
2014,09,01,10,52,331.00
2014,09,01,10,53,337.50
2014,09,01,10,54,399.30
2014,09,01,10,55,340.40
2014,09,01,10,56,317.50
2014,09,01,10,57,308.00
2014,09,01,10,58,306.00
2014,09,01,10,59,309.00
2014,09,01,11,00,314.70
2014,09,01,11,01,313.40
2014,09,01,11,02,319.20
2014,09,01,11,03,334.40
2014,09,01,11,04,354.20
2014,09,01,11,05,371.10
2014,09,01,11,06,391.70
2014,09,01,11,07,405.70
2014,09,01,11,08,412.30
2014,09,01,11,09,424.60
2014,09,01,11,10,445.30
2014,09,01,11,11,444.90
2014,09,01,11,12,442.00
2014,09,01,11,13,430.90
2014,09,01,11,14,414.60
2014,09,01,11,15,397.70
2014,09,01,11,16,387.20
2014,09,01,11,17,381.00
2014,09,01,11,18,380.70
2014,09,01,11,19,380.50
2014,09,01,11,20,384.80
2014,09,01,11,21,392.20
2014,09,01,11,22,402.90
2014,09,01,11,23,420.30
2014,09,01,11,24,441.90
2014,09,01,11,25,454.60
2014,09,01,11,26,506.30
2014,09,01,11,27,501.70
2014,09,01,11,28,407.30
2014,09,01,11,29,385.00
2014,09,01,11,30,359.00
2014,09,01,11,31,350.40
2014,09,01,11,32,355.70
2014,09,01,11,33,368.70
2014,09,01,11,34,372.90
2014,09,01,11,35,376.20
2014,09,01,11,36,390.40
2014,09,01,11,37,402.00
2014,09,01,11,38,411.80
2014,09,01,11,39,408.50
2014,09,01,11,40,386.70
2014,09,01,11,41,368.90
2014,09,01,11,42,346.40
2014,09,01,11,43,327.40
2014,09,01,11,44,311.70
2014,09,01,11,45,302.70
2014,09,01,11,46,295.50
2014,09,01,11,47,284.70
2014,09,01,11,48,274.60
2014,09,01,11,49,268.30
2014,09,01,11,50,267.00
2014,09,01,11,51,265.60
2014,09,01,11,52,269.50
2014,09,01,11,53,271.30
2014,09,01,11,54,273.00
2014,09,01,11,55,276.40
2014,09,01,11,56,275.10
2014,09,01,11,57,269.70
2014,09,01,11,58,265.00
2014,09,01,11,59,267.30
2014,09,01,12,00,278.20
2014,09,01,12,01,289.80
2014,09,01,12,02,300.30
2014,09,01,12,03,309.20
2014,09,01,12,04,315.30
2014,09,01,12,05,325.20
2014,09,01,12,06,343.40
2014,09,01,12,07,369.70
2014,09,01,12,08,405.40
2014,09,01,12,09,452.90
2014,09,01,12,10,471.00
2014,09,01,12,11,571.50
2014,09,01,12,12,589.00
2014,09,01,12,13,589.00
2014,09,01,12,14,600.10
2014,09,01,12,15,600.20
2014,09,01,12,16,580.00
2014,09,01,12,17,580.00
2014,09,01,12,18,626.90
2014,09,01,12,19,614.80
2014,09,01,12,20,457.80
2014,09,01,12,21,411.70
2014,09,01,12,22,386.70
2014,09,01,12,23,393.60
2014,09,01,12,24,420.30
2014,09,01,12,25,399.60
2014,09,01,12,26,377.90
2014,09,01,12,27,369.70
2014,09,01,12,28,366.30
2014,09,01,12,29,373.30
2014,09,01,12,30,397.60
2014,09,01,12,31,408.00
2014,09,01,12,32,479.70
2014,09,01,12,33,449.10
2014,09,01,12,34,428.10
2014,09,01,12,35,419.80
2014,09,01,12,36,408.60
2014,09,01,12,37,408.40
2014,09,01,12,38,415.20
2014,09,01,12,39,423.80
2014,09,01,12,40,433.20
2014,09,01,12,41,421.60
2014,09,01,12,42,397.30
2014,09,01,12,43,366.10
2014,09,01,12,44,332.20
2014,09,01,12,45,304.40
2014,09,01,12,46,288.40
2014,09,01,12,47,281.20
2014,09,01,12,48,281.40
2014,09,01,12,49,284.50
2014,09,01,12,50,286.00
2014,09,01,12,51,283.70
2014,09,01,12,52,281.50
2014,09,01,12,53,286.30
2014,09,01,12,54,311.30
2014,09,01,12,55,318.00
2014,09,01,12,56,300.70
2014,09,01,12,57,291.10
2014,09,01,12,58,283.20
2014,09,01,12,59,279.50
2014,09,01,13,00,280.80
2014,09,01,13,01,284.20
2014,09,01,13,02,277.20
2014,09,01,13,03,266.20
2014,09,01,13,04,254.60
2014,09,01,13,05,246.60
2014,09,01,13,06,243.30
2014,09,01,13,07,243.90
2014,09,01,13,08,246.40
2014,09,01,13,09,250.20
2014,09,01,13,10,252.50
2014,09,01,13,11,259.30
2014,09,01,13,12,271.60
2014,09,01,13,13,284.90
2014,09,01,13,14,299.90
2014,09,01,13,15,322.70
2014,09,01,13,16,348.80
2014,09,01,13,17,377.50
2014,09,01,13,18,404.00
2014,09,01,13,19,433.40
2014,09,01,13,20,441.50
2014,09,01,13,21,447.00
2014,09,01,13,22,481.10
2014,09,01,13,23,439.90
2014,09,01,13,24,409.10
2014,09,01,13,25,413.30
2014,09,01,13,26,479.80
2014,09,01,13,27,531.80
2014,09,01,13,28,538.00
2014,09,01,13,29,538.00
2014,09,01,13,30,498.40
2014,09,01,13,31,354.30
2014,09,01,13,32,349.70
2014,09,01,13,33,357.00
2014,09,01,13,34,357.00
2014,09,01,13,35,345.10
2014,09,01,13,36,350.00
2014,09,01,13,37,351.30
2014,09,01,13,38,358.80
2014,09,01,13,39,374.50
2014,09,01,13,40,381.80
2014,09,01,13,41,380.30
2014,09,01,13,42,382.60
2014,09,01,13,43,392.80
2014,09,01,13,44,404.80
2014,09,01,13,45,440.30
2014,09,01,13,46,478.60
2014,09,01,13,47,479.30
2014,09,01,13,48,529.30
2014,09,01,13,49,476.70
2014,09,01,13,50,505.40
2014,09,01,13,51,488.60
2014,09,01,13,52,448.70
2014,09,01,13,53,445.40
2014,09,01,13,54,458.10
2014,09,01,13,55,474.40
2014,09,01,13,56,494.00
2014,09,01,13,57,504.30
2014,09,01,13,58,528.10
2014,09,01,13,59,464.60
2014,09,01,14,00,443.50
2014,09,01,14,01,434.70
2014,09,01,14,02,441.70
2014,09,01,14,03,449.00
2014,09,01,14,04,457.20
2014,09,01,14,05,469.40
2014,09,01,14,06,480.90
2014,09,01,14,07,424.50
2014,09,01,14,08,444.60
2014,09,01,14,09,481.20
2014,09,01,14,10,483.00
2014,09,01,14,11,1055.00
2014,09,01,14,12,1055.00
2014,09,01,14,13,780.90
2014,09,01,14,14,307.30
2014,09,01,14,15,291.40
2014,09,01,14,16,282.60
2014,09,01,14,17,281.00
2014,09,01,14,18,282.70
2014,09,01,14,19,280.60
2014,09,01,14,20,277.10
2014,09,01,14,21,288.40
2014,09,01,14,22,280.70
2014,09,01,14,23,261.80
2014,09,01,14,24,253.80
2014,09,01,14,25,243.60
2014,09,01,14,26,235.90
2014,09,01,14,27,230.10
2014,09,01,14,28,226.00
2014,09,01,14,29,225.00
2014,09,01,14,30,225.00
2014,09,01,14,31,225.00
2014,09,01,14,32,229.00
2014,09,01,14,33,230.00
2014,09,01,14,34,228.90
2014,09,01,14,35,225.10
2014,09,01,14,36,221.10
2014,09,01,14,37,217.00
2014,09,01,14,38,213.40
2014,09,01,14,39,211.10
2014,09,01,14,40,211.40
2014,09,01,14,41,214.10
2014,09,01,14,42,217.90
2014,09,01,14,43,221.90
2014,09,01,14,44,226.00
2014,09,01,14,45,228.70
2014,09,01,14,46,232.80
2014,09,01,14,47,242.20
2014,09,01,14,48,260.00
2014,09,01,14,49,297.60
2014,09,01,14,50,326.80
2014,09,01,14,51,343.10
2014,09,01,14,52,364.20
2014,09,01,14,53,376.00
2014,09,01,14,54,376.00
2014,09,01,14,55,376.00
2014,09,01,14,56,376.00
2014,09,01,14,57,364.00
2014,09,01,14,58,357.00
2014,09,01,14,59,357.00
2014,09,01,15,00,356.70
2014,09,01,15,01,333.90
2014,09,01,15,02,312.30
2014,09,01,15,03,301.30
2014,09,01,15,04,293.90
2014,09,01,15,05,320.10
2014,09,01,15,06,333.40
2014,09,01,15,07,322.70
2014,09,01,15,08,320.00
2014,09,01,15,09,320.00
2014,09,01,15,10,428.40
2014,09,01,15,11,529.00
2014,09,01,15,12,529.00
2014,09,01,15,13,529.00
2014,09,01,15,14,773.60
2014,09,01,15,15,759.00
2014,09,01,15,16,741.30
2014,09,01,15,17,726.30
2014,09,01,15,18,710.70
2014,09,01,15,19,692.20
2014,09,01,15,20,687.00
2014,09,01,15,21,672.70
2014,09,01,15,22,669.10
2014,09,01,15,23,664.90
2014,09,01,15,24,663.50
2014,09,01,15,25,650.80
2014,09,01,15,26,640.80
2014,09,01,15,27,644.40
2014,09,01,15,28,663.30
2014,09,01,15,29,664.00
2014,09,01,15,30,664.00
2014,09,01,15,31,692.90
2014,09,01,15,32,692.00
2014,09,01,15,33,668.50
2014,09,01,15,34,651.80
2014,09,01,15,35,649.00
2014,09,01,15,36,649.00
2014,09,01,15,37,649.00
2014,09,01,15,38,649.00
2014,09,01,15,39,649.00
2014,09,01,15,40,305.30
2014,09,01,15,41,193.50
2014,09,01,15,42,203.00
2014,09,01,15,43,214.10
2014,09,01,15,44,219.70
2014,09,01,15,45,223.00
2014,09,01,15,46,221.80
2014,09,01,15,47,215.40
2014,09,01,15,48,205.30
2014,09,01,15,49,199.30
2014,09,01,15,50,202.00
2014,09,01,15,51,214.20
2014,09,01,15,52,230.70
2014,09,01,15,53,244.30
2014,09,01,15,54,251.70
2014,09,01,15,55,259.20
2014,09,01,15,56,245.90
2014,09,01,15,57,221.90
2014,09,01,15,58,208.40
2014,09,01,15,59,200.60
2014,09,01,16,00,195.80
2014,09,01,16,01,192.90
2014,09,01,16,02,192.00
2014,09,01,16,03,195.40
2014,09,01,16,04,206.00
2014,09,01,16,05,224.00
2014,09,01,16,06,236.30
2014,09,01,16,07,242.20
2014,09,01,16,08,237.80
2014,09,01,16,09,232.60
2014,09,01,16,10,226.50
2014,09,01,16,11,219.90
2014,09,01,16,12,212.70
2014,09,01,16,13,205.00
2014,09,01,16,14,205.20
2014,09,01,16,15,203.00
2014,09,01,16,16,200.30
2014,09,01,16,17,199.00
2014,09,01,16,18,198.10
2014,09,01,16,19,193.90
2014,09,01,16,20,188.60
2014,09,01,16,21,179.30
2014,09,01,16,22,172.30
2014,09,01,16,23,167.60
2014,09,01,16,24,171.30
2014,09,01,16,25,175.10
2014,09,01,16,26,181.20
2014,09,01,16,27,185.00
2014,09,01,16,28,185.00
2014,09,01,16,29,185.70
2014,09,01,16,30,189.40
2014,09,01,16,31,192.80
2014,09,01,16,32,191.60
2014,09,01,16,33,188.10
2014,09,01,16,34,182.10
2014,09,01,16,35,177.20
2014,09,01,16,36,174.50
2014,09,01,16,37,174.00
2014,09,01,16,38,174.20
2014,09,01,16,39,175.60
2014,09,01,16,40,173.30
2014,09,01,16,41,170.60
2014,09,01,16,42,165.20
2014,09,01,16,43,159.30
2014,09,01,16,44,156.30
2014,09,01,16,45,158.00
2014,09,01,16,46,157.60
2014,09,01,16,47,154.30
2014,09,01,16,48,147.50
2014,09,01,16,49,138.30
2014,09,01,16,50,131.30
2014,09,01,16,51,124.00
2014,09,01,16,52,117.60
2014,09,01,16,53,111.70
2014,09,01,16,54,106.00
2014,09,01,16,55,102.10
2014,09,01,16,56,98.70
2014,09,01,16,57,99.50
2014,09,01,16,58,101.70
2014,09,01,16,59,105.60
2014,09,01,17,00,112.60
2014,09,01,17,01,121.30
2014,09,01,17,02,133.70
2014,09,01,17,03,150.40
2014,09,01,17,04,167.90
2014,09,01,17,05,183.90
2014,09,01,17,06,204.00
2014,09,01,17,07,224.20
2014,09,01,17,08,246.00
2014,09,01,17,09,264.30
2014,09,01,17,10,275.40
2014,09,01,17,11,284.70
2014,09,01,17,12,328.50
2014,09,01,17,13,346.30
2014,09,01,17,14,436.80
2014,09,01,17,15,463.00
2014,09,01,17,16,456.70